Voltar ao catálogo

FENGYUN 1C DEB

AtivoSSO
NORAD 31544·DEBRIS·🇨🇳 China

Lançado May 10, 1999 de Taiyuan Satellite Launch Center

Loading…

Próximas Passagens (próximas 24 horas)

TLE

AtualizadoSource: Space-Track

Época: Sep 13, 2026, 02:04 UTC

1 31544U 99025BYK 26256.08612527  .00000735  00000-0  40080-3 0  9994
2 31544  98.8017 308.8622 0032165 206.6469 153.3052 14.14964042996368

Acompanhe FENGYUN 1C DEB em tempo real com AllMySat

Download on the App Store